Hourly Data Report for October 07, 2016

All times are specified in Local Standard Time (LST). Add 1 hour to adjust for Daylight Saving Time where and when it is observed.

OTTAWA INTL A
ONTARIO

45°19'00.000" N
75°40'00.000" W
114.90 m
6106001
71628
YOW

Download Data

Hourly Data (October 2016)
Hourly Data Report for October 7, 2016
Temp Definition
°C
Dew Point Temp Definition
°C
Rel Hum Definition
%
Wind Dir Definition
10's deg

Wind Spd Definition
km/h
Visibility Definition
km
Stn Press Definition
kPa
Hmdx Definition


Wind Chill Definition


Weather Definition


TIME
00:00 Legend Double Dagger 9.8 9.5 98 12 4 24.1 101.11     LegendNANA
01:00 Legend Double Dagger 10.0 9.7 98 6 5 24.1 101.12     Clear
02:00 Legend Double Dagger 9.3 9.2 99 6 4 24.1 101.13     LegendNANA
03:00 Legend Double Dagger 11.0 10.9 99 13 6 24.1 101.10     LegendNANA
04:00 Legend Double Dagger 10.4 10.3 99 12 6 24.1 101.09     Clear
05:00 Legend Double Dagger 7.6 7.3 98 1 4 24.1 101.14     LegendNANA
06:00 Legend Double Dagger 8.7 8.6 99 6 10 9.7 101.13     Fog
07:00 Legend Double Dagger 9.5 9.4 99 2 8 6.4 101.15     Fog
08:00 Legend Double Dagger 11.6 11.5 99 7 12 9.7 101.10     Fog
09:00 Legend Double Dagger 15.0 12.7 86 7 5 24.1 101.06     LegendNANA
10:00 Legend Double Dagger 18.6 12.9 69 11 7 24.1 101.02     Clear
11:00 Legend Double Dagger 21.1 12.6 58 14 14 24.1 100.95     LegendNANA
12:00 Legend Double Dagger 22.5 13.2 55 14 7 24.1 100.86 25   LegendNANA
13:00 Legend Double Dagger 23.7 11.9 47 15 17 24.1 100.73 26   Clear
14:00 Legend Double Dagger 24.2 11.4 44 17 23 24.1 100.67 26   LegendNANA
15:00 Legend Double Dagger 24.0 10.1 41 17 19 24.1 100.61 25   LegendNANA
16:00 Legend Double Dagger 23.1 10.4 44 18 16 24.1 100.56 25   Clear
17:00 Legend Double Dagger 21.2 10.2 49 16 13 24.1 100.54     LegendNANA
18:00 Legend Double Dagger 18.5 10.7 60 16 10 24.1 100.49     LegendNANA
19:00 Legend Double Dagger 17.3 11.2 67 18 7 24.1 100.50     Clear
20:00 Legend Double Dagger 15.1 11.0 76 14 11 24.1 100.47     LegendNANA
21:00 Legend Double Dagger 15.3 11.3 77 14 14 24.1 100.42     LegendNANA
22:00 Legend Double Dagger 16.6 11.4 71 15 14 24.1 100.37     Mostly Cloudy
23:00 Legend Double Dagger 16.0 11.4 74 16 12 24.1 100.30     LegendNANA

Notes on Data Quality.

Legend

  • E = Estimated
  • M = Missing
  • NA = Not Available
  • ‡ = Partner data that is not subject to review by the National Climate Archives
Date modified: